TimeEST,TemperatureF,Dew PointF,Humidity,Sea Level PressureIn,VisibilityMPH,Wind Direction,Wind SpeedMPH,Gust SpeedMPH,PrecipitationIn,Events,Conditions,WindDirDegrees,DateUTC
12:52 AM,17.1,15.1,92,30.46,10.0,Calm,Calm,-,N/A,,Clear,0,2011-11-06 04:52:00
1:52 AM,18.0,16.0,92,30.46,10.0,Calm,Calm,-,N/A,,Clear,0,2011-11-06 05:52:00
1:52 AM,16.0,12.9,88,30.46,10.0,Calm,Calm,-,N/A,,Clear,0,2011-11-06 06:52:00
2:52 AM,16.0,12.9,88,30.45,10.0,Calm,Calm,-,N/A,,Clear,0,2011-11-06 07:52:00
3:52 AM,15.1,12.0,88,30.45,10.0,Calm,Calm,-,N/A,,Clear,0,2011-11-06 08:52:00
4:52 AM,16.0,12.0,84,30.45,10.0,Calm,Calm,-,N/A,,Clear,0,2011-11-06 09:52:00
5:52 AM,16.0,12.0,84,30.46,10.0,Calm,Calm,-,N/A,,Clear,0,2011-11-06 10:52:00
6:52 AM,14.0,10.0,84,30.47,10.0,Calm,Calm,-,N/A,,Clear,0,2011-11-06 11:52:00
7:52 AM,21.9,19.9,92,30.48,10.0,Calm,Calm,-,N/A,,Clear,0,2011-11-06 12:52:00
8:52 AM,28.9,25.0,85,30.45,10.0,Calm,Calm,-,N/A,,Clear,0,2011-11-06 13:52:00
9:52 AM,39.0,28.0,65,30.43,10.0,Calm,Calm,-,N/A,,Clear,0,2011-11-06 14:52:00
10:52 AM,46.9,19.9,34,30.40,10.0,Calm,Calm,-,N/A,,Clear,0,2011-11-06 15:52:00
11:52 AM,51.1,17.1,26,30.36,10.0,Calm,Calm,-,N/A,,Clear,0,2011-11-06 16:52:00
12:52 PM,54.0,14.0,21,30.34,10.0,NNE,4.6,-,N/A,,Clear,20,2011-11-06 17:52:00
1:52 PM,55.9,10.9,17,30.32,10.0,NW,3.5,-,N/A,,Clear,310,2011-11-06 18:52:00
2:52 PM,55.9,10.9,17,30.30,10.0,Calm,Calm,-,N/A,,Clear,0,2011-11-06 19:52:00
3:52 PM,48.9,19.9,32,30.30,10.0,Calm,Calm,-,N/A,,Clear,0,2011-11-06 20:52:00
4:52 PM,34.0,23.0,64,30.32,10.0,Calm,Calm,-,N/A,,Clear,0,2011-11-06 21:52:00
5:52 PM,28.9,21.9,75,30.33,10.0,Calm,Calm,-,N/A,,Clear,0,2011-11-06 22:52:00
6:52 PM,27.0,21.0,78,30.34,10.0,Calm,Calm,-,N/A,,Clear,0,2011-11-06 23:52:00
7:52 PM,26.1,21.0,81,30.33,10.0,Calm,Calm,-,N/A,,Clear,0,2011-11-07 00:52:00
8:52 PM,23.0,19.9,88,30.33,10.0,Calm,Calm,-,N/A,,Clear,0,2011-11-07 01:52:00
9:52 PM,23.0,19.9,88,30.32,10.0,Calm,Calm,-,N/A,,Clear,0,2011-11-07 02:52:00
10:52 PM,21.0,18.0,88,30.31,10.0,Calm,Calm,-,N/A,,Clear,0,2011-11-07 03:52:00